[[{"header":{"parameterUnit":"m.s-1","parameterCategory":1,"la1":30.2992,"la2":30.254,"lo1":-89.0895,"lo2":-89.0443,"dy":0.0025,"dx":0.0025,"nx":19,"ny":19,"refTime":"2026-03-14T03:00:00:Z","depth":0,"parameterNumber":2,"parameterNumberName":"U-component_of_WINDS"},"data":[0,0,0,-1.3759,-1.3757,-1.3648,-1.3647,-1.352,-1.3519,0,0,0,0,0,0,0,0,0,0,0,-1.3801,-1.3801,-1.3759,-1.3757,-1.3648,-1.3647,-1.352,-1.3519,0,0,0,0,0,0,0,0,0,0,0,-1.3801,-1.3801,-1.38,-1.3756,-1.3648,-1.3647,-1.352,-1.3598,0,0,0,0,0,0,0,0,0,0,-1.3701,-1.3751,-1.3801,-1.38,-1.3756,-1.3648,-1.3647,-1.3601,-1.3593,-1.3575,0,-1.3565,0,-1.354,-1.3511,-1.3511,0,0,0,-1.3748,-1.3758,-1.372,-1.38,-1.3755,-1.3648,-1.3694,-1.3596,-1.3587,-1.3565,-1.3563,-1.3558,-1.3538,-1.3511,-1.351,-1.3443,-1.3444,0,0,-1.3754,-1.3786,-1.3726,-1.3714,-1.3735,-1.3698,-1.3691,-1.359,-1.359,-1.3562,-1.3555,-1.3536,-1.351,-1.3509,-1.3443,-1.3443,0,0,0,-1.3777,-1.3791,-1.3755,-1.372,-1.3699,-1.3695,-1.3687,-1.3594,-1.358,-1.3553,-1.3535,-1.3509,-1.3508,-1.3443,-1.3443,-1.3479,0,0,0,-1.378,-1.3804,-1.3758,-1.3776,-1.3702,-1.3646,-1.3694,-1.3587,-1.3574,-1.3535,-1.3509,-1.3507,-1.3443,-1.3443,-1.3478,-1.349,0,0,0,-1.3805,-1.3807,-1.3795,-1.3778,-1.3733,-1.3647,-1.3626,-1.3583,-1.3564,-1.3511,-1.3506,-1.3443,-1.3443,-1.3477,-1.3488,-1.3481,0,0,0,-1.3839,-1.3827,-1.3796,-1.3775,-1.3734,-1.3671,-1.3627,-1.3577,-1.3536,-1.3509,-1.3443,-1.3443,-1.3476,-1.3487,-1.3481,-1.3482,-1.3486,0,0,-1.3841,-1.3828,-1.3813,-1.3782,-1.3733,-1.3685,-1.3639,-1.357,-1.3535,-1.3475,-1.3473,-1.3478,-1.3488,-1.3481,-1.3496,-1.35,0,0,0,-1.3824,-1.3814,-1.3794,-1.3758,-1.3706,-1.3663,-1.3598,-1.3572,-1.352,-1.3512,-1.3473,-1.3478,-1.3473,-1.3472,-1.3474,-1.3468,-1.3445,-1.3445,-1.3444,-1.3872,-1.3829,-1.3801,-1.3745,-1.371,-1.3644,-1.3611,-1.3565,-1.353,-1.3522,-1.3504,-1.3518,-1.3519,-1.352,-1.3514,-1.3501,-1.3501,-1.3501,-1.3502,-1.387,-1.3848,-1.3804,-1.3761,-1.3715,-1.3677,-1.3613,-1.359,-1.3546,-1.3528,-1.3522,-1.3505,-1.3526,-1.3517,-1.3504,-1.3503,-1.3503,-1.3503,-1.3503,-1.3896,-1.3878,-1.3849,-1.3792,-1.3753,-1.3696,-1.3657,-1.3616,-1.3576,-1.357,-1.3546,-1.3545,-1.3539,-1.3562,-1.3562,-1.3562,-1.3562,-1.3562,-1.3562,-1.3935,-1.3901,-1.3874,-1.3819,-1.379,-1.3747,-1.3681,-1.365,-1.3606,-1.3579,-1.3578,-1.3544,-1.3536,-1.3535,-1.3562,-1.3562,-1.3562,-1.3562,-1.3562,-1.3948,-1.3939,-1.3898,-1.387,-1.3801,-1.3765,-1.3713,-1.3655,-1.3624,-1.3606,-1.3573,-1.3574,-1.3557,-1.3554,-1.3553,-1.3583,-1.3583,-1.3583,-1.3583,-1.397,-1.3958,-1.3907,-1.3864,-1.3817,-1.3767,-1.372,-1.3667,-1.3611,-1.3589,-1.3579,-1.3573,-1.3573,-1.3556,-1.3553,-1.3551,-1.358,-1.358,-1.358,-1.3975,-1.3957,-1.3926,-1.3874,-1.3817,-1.3769,-1.3723,-1.3674,-1.3608,-1.3579,-1.357,-1.3571,-1.3561,-1.3561,-1.3532,-1.3528,-1.3523,0,0]},{"header":{"parameterUnit":"m.s-1","parameterCategory":1,"la1":30.2992,"la2":30.254,"lo1":-89.0895,"lo2":-89.0443,"dy":0.0025,"dx":0.0025,"nx":19,"ny":19,"refTime":"2026-03-14T03:00:00:Z","depth":0,"parameterNumber":3,"parameterNumberName":"V-component_of_WINDS"},"data":[0,0,0,6.7529,6.7534,6.781,6.7812,6.8131,6.8133,0,0,0,0,0,0,0,0,0,0,0,6.7425,6.7426,6.7529,6.7535,6.781,6.7812,6.813,6.8133,0,0,0,0,0,0,0,0,0,0,0,6.7424,6.7426,6.7427,6.7536,6.781,6.7812,6.813,6.7934,0,0,0,0,0,0,0,0,0,0,6.7672,6.7553,6.7425,6.7427,6.7537,6.781,6.7812,6.7925,6.7946,6.7991,0,6.8023,0,6.8083,6.8152,6.8153,0,0,0,6.7552,6.7535,6.763,6.7428,6.754,6.7809,6.7691,6.7937,6.7961,6.8018,6.8028,6.8041,6.8088,6.8154,6.8156,6.8358,6.8358,0,0,6.7536,6.7462,6.7614,6.7644,6.7598,6.7682,6.7699,6.7952,6.7957,6.8029,6.8049,6.8094,6.8156,6.8158,6.8358,6.8358,0,0,0,6.7481,6.745,6.754,6.763,6.7682,6.7689,6.7709,6.7946,6.7982,6.8052,6.8097,6.8158,6.8161,6.8358,6.8358,6.8295,0,0,0,6.7473,6.7418,6.7533,6.749,6.7677,6.7817,6.7697,6.7964,6.7995,6.8096,6.8158,6.8164,6.8358,6.8358,6.8296,6.8276,0,0,0,6.7414,6.7412,6.7444,6.7485,6.7601,6.7815,6.7866,6.7973,6.8022,6.8154,6.8165,6.8358,6.8358,6.8297,6.8279,6.831,0,0,0,6.733,6.738,6.7441,6.7516,6.7598,6.7773,6.7865,6.7999,6.8104,6.8159,6.8358,6.8358,6.8298,6.828,6.8311,6.8323,6.8321,0,0,6.7351,6.738,6.743,6.7494,6.7639,6.7737,6.7876,6.8041,6.8122,6.8275,6.8281,6.8296,6.8279,6.8311,6.8335,6.8332,0,0,0,6.7412,6.7447,6.7502,6.76,6.773,6.7842,6.7995,6.8059,6.8194,6.8185,6.8318,6.831,6.8332,6.8341,6.8339,6.8364,6.8359,6.8359,6.8359,6.7332,6.7437,6.7529,6.7667,6.7762,6.7924,6.8011,6.8125,6.8198,6.8229,6.8274,6.8276,6.8284,6.8284,6.8308,6.8289,6.8289,6.8289,6.8288,6.7374,6.7442,6.7546,6.7672,6.7784,6.7892,6.8053,6.8103,6.8222,6.8249,6.8273,6.8293,6.8278,6.8305,6.8285,6.8285,6.8286,6.8286,6.8287,6.7333,6.7384,6.7463,6.7621,6.7732,6.7873,6.7984,6.8081,6.8173,6.8197,6.8259,6.826,6.8275,6.822,6.822,6.822,6.822,6.822,6.822,6.7259,6.7351,6.7432,6.7581,6.7661,6.7778,6.7948,6.803,6.8146,6.8208,6.8209,6.8282,6.8257,6.8249,6.8221,6.822,6.822,6.822,6.822,6.7262,6.7279,6.7404,6.7485,6.7672,6.7779,6.7904,6.8065,6.8147,6.82,6.8272,6.8236,6.8271,6.8274,6.8268,6.8247,6.8247,6.8247,6.8247,6.7227,6.7257,6.7411,6.7535,6.7667,6.7796,6.794,6.8076,6.8218,6.8277,6.8296,6.8296,6.8294,6.8331,6.8332,6.8328,6.8323,6.8323,6.8323,6.7236,6.7285,6.7386,6.7527,6.7684,6.7817,6.7957,6.8097,6.8263,6.8328,6.8327,6.8323,6.8326,6.8321,6.8381,6.838,6.8375,0,0]}]]